Flag for Mauritania Weather past 2 weeks in Nouakchott, Mauritania

Now
88 °F

Clear.


Feels Like: 88 °F
Forecast: N/A
Wind: 9 mph from Southwest

Location: Nouakchott Airport

Current Time: Apr 28, 2015 at 4:09:15 PM

Latest Report: Apr 28, 2015 at 3:30 PM


Visibility: 4 mi

Pressure: 29.77 "Hg

Humidity: 43%

Dew point: 63 °F

Location of NouakchottLocation

Historic Weather in Nouakchott — Graph

°F

Nouakchott temperature yesterday

Maximum temperature yesterday: 106 °F (at 1:00 PM)
Minimum temperature yesterday: 68 °F (at 5:00 AM)
Average temperature yesterday: 78 °F

Past Weeks' High & Low Weather Summary

 TemperatureHumidityPressure
High106 °F (Apr 25, 1:00 PM)88% (Apr 18, 5:00 AM)29.92 "Hg (Apr 18, 5:00 AM)
Low66 °F (Apr 18, 3:30 AM)6% (Apr 27, 1:00 PM)29.71 "Hg (Apr 27, 3:00 PM)
Average76 °F57%29.84 "Hg
* Reported Apr 13 3:00 PM — Apr 28 3:00 PM, Nouakchott, Weather by CustomWeather, © 2015

Note: Actual official high and low records may vary slightly from our data, if they occured in-between our weather recording intervals... More about our weather records

Advertising

Nouakchott weather history for previous 24 hours

 ConditionsComfort  
Time TempWeatherWind HumidityBarometerVisibility
3:00 PM
Tue, Apr 28
88 °FClear.8 mph43%29.80 "Hg4 mi
2:30 PM88 °FClear.10 mph40%29.80 "Hg4 mi
2:00 PM88 °FClear.8 mph40%29.80 "Hg4 mi
1:30 PM86 °FWarm.N/A43%29.83 "HgN/A
1:00 PM82 °FClear.6 mph48%29.83 "Hg4 mi
12:30 PM81 °FClear.7 mph54%29.86 "Hg4 mi
12:00 PM79 °FClear.7 mph54%29.86 "Hg4 mi
11:30 AM77 °FClear.9 mph61%29.86 "Hg4 mi
11:00 AM75 °FClear.10 mph65%29.86 "Hg4 mi
10:30 AM75 °FClear.12 mph65%29.86 "Hg4 mi
10:00 AM73 °FClear.10 mph69%29.86 "Hg4 mi
9:30 AM72 °FClear.13 mph73%29.83 "Hg4 mi
9:00 AM72 °FClear.12 mph73%29.83 "Hg4 mi
8:30 AM70 °FClear.12 mph78%29.83 "Hg4 mi
8:00 AM68 °FClear.10 mph83%29.80 "Hg4 mi
7:30 AM68 °FClear.12 mph83%29.80 "Hg4 mi
7:00 AM68 °FClear.9 mph78%29.80 "Hg4 mi
6:30 AM68 °FClear.8 mph78%29.77 "Hg4 mi
6:00 AM68 °FClear.10 mph78%29.77 "Hg4 mi
5:30 AM68 °FClear.9 mph78%29.77 "Hg4 mi
5:00 AM68 °FClear.9 mph78%29.77 "Hg4 mi
4:30 AM68 °FClear.7 mph78%29.74 "Hg4 mi
4:00 AM68 °FClear.7 mph78%29.74 "Hg4 mi
3:30 AM68 °FClear.8 mph73%29.77 "Hg4 mi
3:00 AM68 °FClear.8 mph73%29.77 "Hg4 mi
2:30 AM68 °FClear.9 mph73%29.77 "Hg4 mi
2:00 AM68 °FMild.8 mph73%29.77 "HgN/A
1:30 AM68 °FClear.10 mph73%29.77 "Hg4 mi
1:00 AM68 °FClear.10 mph73%29.80 "Hg4 mi
12:30 AM70 °FClear.7 mph69%29.80 "Hg4 mi
12:00 AM70 °FClear.6 mph69%29.80 "Hg4 mi
11:30 PM
Mon, Apr 27
72 °FClear.7 mph65%29.80 "Hg4 mi
11:00 PM72 °FClear.3 mph69%29.83 "Hg4 mi
10:30 PM72 °FClear.7 mph65%29.83 "Hg4 mi
10:00 PM72 °FClear.7 mph65%29.83 "Hg4 mi
9:30 PM72 °FClear.8 mph65%29.80 "Hg4 mi
9:00 PM72 °FClear.6 mph65%29.80 "Hg4 mi
8:30 PM72 °FSandstorm.6 mph61%29.77 "Hg3 mi
8:00 PM72 °FSandstorm.16 mph61%29.74 "Hg3 mi
7:30 PM73 °FSandstorm.17 mph57%29.74 "Hg3 mi
7:00 PM73 °FSandstorm.16 mph57%29.74 "Hg3 mi
6:30 PM73 °FSandstorm.18 mph57%29.71 "Hg3 mi
6:00 PM73 °FSandstorm.21 mph57%29.71 "Hg3 mi
5:30 PM75 °FClear.20 mph54%29.71 "Hg4 mi
5:00 PM77 °FClear.17 mph51%29.71 "Hg4 mi
4:30 PM81 °FClear.17 mph48%29.71 "Hg4 mi
4:00 PM86 °FClear.16 mph38%29.71 "Hg4 mi
Weather by CustomWeather, © 2015

See weather overviewHow to use our weather pages